Tracking 30106 objects as of 23-Jan-2025
HD Live streaming from Space Station
objects crossing your sky now

FENGYUN 1C DEB

Track FENGYUN 1C DEB now!
10-day predictions


NORAD ID: 29805
Int'l Code: 1999-025CX
Perigee: 858.9 km
Apogee: 1,136.5 km
Inclination: 99.5 °
Period: 104.9 minutes
Semi major axis: 7368 km
RCS: 0.0153 m2 (small)
Launch date: May 10, 1999
Source: People's Republic of China (PRC)
Launch site: Taiyaun Space Center, China (TSC)

Note: This is SATELLITE DEBRIS
Your satellite tracking list
Your tracking list is empty




NASA's NSSDC Master Catalog

Two Line Element Set (TLE):
1 29805U 99025CX  25023.12265715  .00000226  00000-0  26044-3 0  9999
2 29805  99.5009  77.7805 0188318 351.7747   8.0327 13.72516236902732
Source of the keplerian elements: AFSPC